Location: Be?chatów
(51.3665°N, 19.3745°E)
Time: 08:32:10
(UTC+00:00)

GP-B - Pass Details

Date: 19 May 2025
Orbit: 619 x 623 km, 89.8° (Epoch: 16 June)

Event Time Altitude Azimuth Distance (km) Brightness Sun altitude
Rises 23:08:35 0° 356° (N) 2,917 8.1 -18.4°
Reaches altitude 10° 23:10:53 10° 350° (N) 2,005 6.8 -18.3°
Maximum altitude 23:15:03 44° 279° (W) 870 3.8 -18.2°
Enters shadow 23:16:39 30° 230° (SW) 1,110 3.9 -18.2°
